Location: Palomar Mountain Lodge
(33.3110°N, 116.8495°W)
Time: 19:21:05
(UTC-08:00)

Cosmos 1805 Rocket - Pass Details

Date: 12 July 2018
Orbit: 606 x 630 km, 82.5° (Epoch: 17 November)

Event Time Altitude Azimuth Distance (km) Brightness Sun altitude
Exits shadow 22:37:39 55° 264° (W) 758 4.0 -26.1°
Maximum altitude 22:37:52 55° 278° (W) 751 4.1 -26.1°
Drops below altitude 10° 22:42:15 10° 357° (N) 2,008 6.9 -26.6°
Sets 22:44:32 0° 2° (N) 2,920 7.8 -26.9°
